Plymouth, MA

1:21 AM EDT on May 28, 2017 (GMT -0400)
Plymouth Municipal

Weather History for KPYM - November, 2012

Change the Weather History Date:

Tuesday, November 13, 2012

  Actual Average Record
Temperature  
Mean Temperature 52 °F -  
Max Temperature 64 °F 51 °F 70 °F (1964)
Min Temperature 41 °F 33 °F 17 °F (1996)
Degree Days  
Heating Degree Days 12    
Growing Degree Days 2 (Base 50)    
Moisture  
Dew Point 50 °F    
Average Humidity 86    
Maximum Humidity 94    
Minimum Humidity 73    
Precipitation  
Precipitation 0.38 in - - ()
Sea Level Pressure  
Sea Level Pressure 30.24 in    
Wind  
Wind Speed 10 mph (West)    
Max Wind Speed 18 mph    
Max Gust Speed 30 mph    
Visibility 9 miles    
Events Rain    
Averages and records for this station are not official NWS values.
T = Trace of Precipitation, MM = Missing Value Source: NWS Daily Summary

Daily Weather History Graph

Daily Weather History Graph

Search for Another Location

Airport or City:

Trip Planner

Search our weather history database for the weather conditions in past years. The results will help you decide how hot, cold, wet, or windy it might be!

Date:

Astronomy

Nov. 13, 2012 Rise Set
Actual Time 6:30 AM EST 4:23 PM EST
Civil Twilight 6:00 AM EST 4:53 PM EST
Nautical Twilight 5:27 AM EST 5:26 PM EST
Astronomical Twilight 4:54 AM EST 5:59 PM EST
Moon 6:05 AM EST (11/13) 4:13 PM EST (11/13)
Length of Visible Light 10h 52m
Length of Day
9h 52m
Waning Crescent, 0% of the Moon is Illuminated
Nov 13
Waning Crescent
Nov 13
New
Nov 20
First Quarter
Nov 28
Full
Dec 6
Last Quarter

Hourly Weather History & Observations

Time (EST) Temp. Windchill Dew Point Humidity Pressure Visibility Wind Dir Wind Speed Gust Speed Precip Events Conditions
12:08 AM 62.6 °F - 59.0 °F 88% 30.26 in 10.0 mi South 10.4 mph 19.6 mph N/A   Mostly Cloudy
12:16 AM 62.6 °F - 59.0 °F 88% 30.26 in 10.0 mi South 10.4 mph 16.1 mph N/A   Mostly Cloudy
12:52 AM 63.0 °F - 60.1 °F 90% 30.25 in 10.0 mi South 11.5 mph 20.7 mph N/A   Overcast
1:44 AM 62.6 °F - 59.0 °F 88% 30.23 in 10.0 mi SSW 9.2 mph 20.7 mph N/A   Mostly Cloudy
1:52 AM 63.0 °F - 59.0 °F 87% 30.23 in 10.0 mi South 6.9 mph 18.4 mph N/A   Mostly Cloudy
2:04 AM 62.6 °F - 59.0 °F 88% 30.23 in 10.0 mi SSW 10.4 mph 19.6 mph N/A   Overcast
2:32 AM 62.6 °F - 59.0 °F 88% 30.22 in 10.0 mi SSW 10.4 mph 19.6 mph N/A   Overcast
2:45 AM 62.6 °F - 59.0 °F 88% 30.21 in 10.0 mi SSW 10.4 mph 17.3 mph N/A   Overcast
2:52 AM 63.0 °F - 59.0 °F 87% 30.21 in 10.0 mi South 8.1 mph 18.4 mph N/A   Overcast
3:34 AM 62.6 °F - 57.2 °F 82% 30.19 in 10.0 mi South 8.1 mph 21.9 mph N/A   Overcast
3:52 AM 62.1 °F - 57.9 °F 86% 30.19 in 10.0 mi South 9.2 mph 17.3 mph N/A   Overcast
4:14 AM 62.6 °F - 57.2 °F 82% 30.18 in 10.0 mi South 6.9 mph - N/A   Overcast
4:45 AM 62.6 °F - 59.0 °F 88% 30.18 in 10.0 mi SSW 9.2 mph 17.3 mph N/A   Overcast
4:52 AM 64.0 °F - 59.0 °F 84% 30.17 in 10.0 mi SSW 11.5 mph 20.7 mph N/A   Overcast
5:47 AM 64.4 °F - 57.2 °F 77% 30.17 in 10.0 mi SSW 13.8 mph 26.5 mph N/A   Overcast
5:52 AM 64.0 °F - 57.9 °F 80% 30.17 in 10.0 mi SSW 15.0 mph 26.5 mph N/A   Overcast
6:47 AM 62.6 °F - 59.0 °F 88% 30.17 in 10.0 mi SW 15.0 mph 21.9 mph 0.02 in   Overcast
6:52 AM 63.0 °F - 59.0 °F 87% 30.17 in 10.0 mi SSW 12.7 mph 26.5 mph 0.02 in   Overcast
7:52 AM 63.0 °F - 59.0 °F 87% 30.17 in 10.0 mi SSW 10.4 mph 20.7 mph 0.00 in   Overcast
8:36 AM 62.6 °F - 60.8 °F 94% 30.17 in 10.0 mi SSW 11.5 mph 19.6 mph 0.01 in   Overcast
8:52 AM 64.0 °F - 60.1 °F 87% 30.18 in 10.0 mi SSW 11.5 mph 21.9 mph 0.01 in   Overcast
9:05 AM 64.4 °F - 60.8 °F 88% 30.17 in 10.0 mi SSW 11.5 mph 21.9 mph N/A   Overcast
9:34 AM 62.6 °F - 60.8 °F 94% 30.19 in 3.0 mi WSW 18.4 mph 29.9 mph 0.02 in Rain Rain
9:38 AM 59.0 °F - 55.4 °F 88% 30.20 in 1.8 mi NW 16.1 mph 29.9 mph 0.06 in Rain Heavy Rain
9:48 AM 53.6 °F - 51.8 °F 94% 30.22 in 3.0 mi NW 15.0 mph 18.4 mph 0.09 in Rain Rain
9:52 AM 54.0 °F - 50.0 °F 86% 30.22 in 3.0 mi NW 13.8 mph 23.0 mph 0.11 in Rain Heavy Rain
9:54 AM 53.6 °F - 50.0 °F 88% 30.21 in 3.0 mi NW 12.7 mph 23.0 mph 0.01 in Rain Heavy Rain
9:56 AM 53.6 °F - 50.0 °F 88% 30.22 in 2.5 mi NW 15.0 mph 23.0 mph 0.01 in Rain Heavy Rain
10:18 AM 53.6 °F - 50.0 °F 88% 30.23 in 10.0 mi NW 6.9 mph - 0.07 in Rain Light Rain
10:52 AM 52.0 °F - 48.0 °F 86% 30.24 in 10.0 mi NNW 10.4 mph - 0.07 in   Overcast
11:37 AM 51.8 °F - 46.4 °F 82% 30.22 in 10.0 mi NNW 5.8 mph - 0.00 in Rain Light Rain
11:52 AM 51.1 °F - 46.9 °F 86% 30.22 in 7.0 mi NW 5.8 mph - 0.00 in Rain Light Rain
12:52 PM 51.1 °F - 46.0 °F 83% 30.22 in 10.0 mi NNW 5.8 mph - 0.00 in Rain Light Rain
1:52 PM 50.0 °F - 46.0 °F 86% 30.23 in 9.0 mi NW 4.6 mph - 0.01 in Rain Light Rain
2:32 PM 51.8 °F - 46.4 °F 82% 30.23 in 9.0 mi NW 4.6 mph - 0.00 in Rain Light Rain
2:42 PM 50.0 °F - 46.4 °F 87% 30.23 in 10.0 mi NW 4.6 mph - 0.00 in Rain Light Rain
2:49 PM 50.0 °F - 46.4 °F 87% 30.24 in 10.0 mi WNW 4.6 mph - 0.01 in Rain Light Rain
2:52 PM 50.0 °F - 46.9 °F 89% 30.25 in 10.0 mi West 8.1 mph - 0.01 in Rain Light Rain
3:02 PM 48.2 °F - 44.6 °F 87% 30.26 in 8.0 mi West 11.5 mph - 0.00 in Rain Light Rain
3:15 PM 48.2 °F - 44.6 °F 87% 30.25 in 2.5 mi WNW 6.9 mph - 0.03 in Rain Rain
3:23 PM 48.2 °F - 44.6 °F 87% 30.25 in 3.0 mi WNW 8.1 mph - 0.03 in Rain Light Rain
3:52 PM 46.9 °F - 44.1 °F 90% 30.27 in 3.0 mi WNW 5.8 mph - 0.07 in Rain Rain
4:14 PM 46.4 °F 42.9 °F 42.8 °F 87% 30.26 in 9.0 mi North 6.9 mph - 0.01 in Rain Light Rain
4:24 PM 46.4 °F 42.4 °F 42.8 °F 87% 30.27 in 6.0 mi NW 8.1 mph - 0.02 in Rain Light Rain
4:37 PM 46.4 °F 41.1 °F 42.8 °F 87% 30.28 in 8.0 mi NNW 11.5 mph - 0.02 in Rain Light Rain
4:52 PM 45.0 °F 39.7 °F 41.0 °F 86% 30.29 in 10.0 mi North 10.4 mph - 0.02 in Rain Light Rain
5:15 PM 44.6 °F 39.7 °F 39.2 °F 81% 30.30 in 10.0 mi North 9.2 mph - 0.00 in   Overcast
5:52 PM 43.0 °F 39.5 °F 39.9 °F 89% 30.32 in 9.0 mi NNW 5.8 mph - 0.03 in Rain Light Rain
6:36 PM 42.8 °F 40.1 °F 39.2 °F 87% 30.33 in 10.0 mi NNW 4.6 mph - 0.01 in Rain Light Rain
6:52 PM 43.0 °F 38.8 °F 39.9 °F 89% 30.34 in 10.0 mi NNW 6.9 mph - 0.01 in   Overcast
7:52 PM 43.0 °F 38.8 °F 39.9 °F 89% 30.35 in 10.0 mi NNW 6.9 mph - 0.02 in Rain Light Rain
8:52 PM 43.0 °F 37.2 °F 36.0 °F 76% 30.36 in 10.0 mi NNW 10.4 mph - 0.00 in   Overcast
9:52 PM 42.1 °F 37.1 °F 34.0 °F 73% 30.38 in 10.0 mi North 8.1 mph - N/A   Overcast
10:34 PM 41.0 °F 35.2 °F 33.8 °F 76% 30.39 in 10.0 mi North 9.2 mph - 0.00 in   Overcast
10:52 PM 41.0 °F 35.2 °F 34.0 °F 76% 30.39 in 10.0 mi North 9.2 mph - 0.00 in Rain Light Rain
11:52 PM 41.0 °F 38.0 °F 36.0 °F 82% 30.40 in 10.0 mi NNW 4.6 mph - 0.00 in Rain Light Rain